Regional Weather Roundup
Issued by NWS

Home | Current Version | Previous Version | Graphics & Text | Print | Product List | Glossary On
Versions: 1 2 3 4 5 6 7 8 9 10 11 12 13 14 15 16 17 18 19 20 21 22 23 24 25 26 27 28 29 30 31 32 33 34 35 36 37 38 39 40 41 42 43 44 45 46 47 48 49 50
000
ASUS43 KMKX 200300
RWRWI

WISCONSIN REGIONAL WEATHER ROUNDUP
NATIONAL WEATHER SERVICE MILWAUKEE/SULLIVAN WI
1000 PM CDT WED JUL 19 2017

NOTE: "FAIR" INDICATES FEW OR NO CLOUDS BELOW 12,000 FEET WITH NO
SIGNIFICANT WEATHER AND/OR OBSTRUCTIONS TO VISIBILITY.

WIZ001-002-006>008-014>016-023>028-200400-
NORTHWEST WISCONSIN

CITY           SKY/WX    TMP DP  RH WIND       PRES   REMARKS
SUPERIOR ARPT  NOT AVBL
ASHLAND        MOCLDY    65  60  84 CALM      29.93F
HAYWARD        PTCLDY    65  62  90 CALM      29.95R
SIREN          MOCLDY    68  62  80 CALM      29.94S
CUMBERLAND     CLOUDY    64  61  88 CALM      29.95S
RICE LAKE      CLOUDY    66  62  87 CALM      29.95S
CHETEK         CLOUDY    66  63  90 CALM      29.94S
LADYSMITH      CLOUDY    67  62  84 CALM      29.97S
EAU CLAIRE     NOT AVBL
MENOMONIE      CLOUDY    69  66  90 CALM      29.95R
NEW RICHMOND   CLOUDY    66  64  94 CALM      29.93S
OSCEOLA        CLOUDY    65  65 100 CALM      29.96R
$$

WIZ003>005-009-010-017-018-200400-
NORTH CENTRAL WISCONSIN

CITY           SKY/WX    TMP DP  RH WIND       PRES   REMARKS
MANITOWISH WTR CLOUDY    65  60  84 SE3       29.97S
ARBOR VITAE    CLOUDY    72  61  67 SE3       29.97R
WOODRUFF       CLOUDY    72  61  67 SE3       29.97R
RHINELANDER    CLOUDY    67  59  75 SE5       29.97F
EAGLE RIVER    CLOUDY    68  56  65 S3        29.98R
LAND O LAKES   CLOUDY    67  57  68 CALM      30.00R
PHILLIPS       MOCLDY    64  60  88 CALM      29.96S
TOMAHAWK         N/A     64  58  82 CALM      29.97R
MEDFORD        CLOUDY    64  60  85 CALM      29.95R
MERRILL        CLOUDY    65  61  87 CALM      29.95S
$$

WIZ029-030-035-036-043>047-200400-
CENTRAL WISCONSIN

CITY           SKY/WX    TMP DP  RH WIND       PRES   REMARKS
WAUSAU         CLOUDY    68  59  73 E6        29.92S
MOSINEE        MOCLDY    68  61  77 NE5       29.95R
MARSHFIELD     CLOUDY    67  63  87 W5        29.94R
STEVENS POINT  CLOUDY    68  65  88 N3        29.93S
WAUPACA        CLOUDY    75  69  80 NE7       29.89R
WAUTOMA        CLOUDY    73  68  84 SW7       29.89
WISC RAPIDS    CLOUDY    71  68  90 NW9       29.95R
CAMP DOUGLAS   NOT AVBL
$$

WIZ011>013-019>022-031-037>040-048>050-200400-
NORTHEAST WISCONSIN

CITY           SKY/WX    TMP DP  RH WIND       PRES   REMARKS
ANTIGO         CLOUDY    65  58  77 E7        29.97S
SHAWANO        MOCLDY    72  55  56 E5        29.94S
OCONTO         CLOUDY    71  55  56 SE5       29.96R
STURGEON BAY     N/A     68  57  68 S9        29.98S
GREEN BAY      CLOUDY    71  52  50 E12       29.93F
MANITOWOC      NOT AVBL
APPLETON       CLOUDY    73  57  56 E8        29.90R
CLINTONVILLE   CLOUDY    70  55  60 E7        29.92S
OSHKOSH        CLOUDY    72  64  76 S26G32    29.84F
$$

WIZ032>034-041-042-053>061-200400-
SOUTHWEST WISCONSIN

CITY           SKY/WX    TMP DP  RH WIND       PRES   REMARKS
LA CROSSE      CLOUDY    73  69  87 E8        29.93R
SPARTA         CLOUDY    66  65  96 CALM      29.95S
VIROQUA        NOT AVBL
BOSCOBEL       CLOUDY    72  68  87 W6        29.98S
PRAIRIE DU CHI CLOUDY    67  65  95 E7        29.97F
PLATTEVILLE    CLOUDY    68  68 100 SE6       30.05F
$$

WIZ056-057-062-063-064-067-068-200400-
SOUTH CENTRAL WISCONSIN

CITY           SKY/WX    TMP DP  RH WIND       PRES   REMARKS
REEDSBURG      CLOUDY    72  69  90 SW10G17   29.96R
BARABOO/DELLS  CLOUDY    73  69  86 SE16G29   29.90F
LONE ROCK      CLOUDY    71  67  87 W7        29.99R
MINERAL POINT  CLOUDY    70  70 100 SW8       30.04S
MADISON        TSTM      69  68  96 E21       30.03R FOG
MIDDLETON      CLOUDY    71  71 100 SE22G31   29.98F
WATERTOWN      RAIN      68  65  90 NE3       30.07R
MONROE         RAIN      68  64  88 W22G39    30.08R
JANESVILLE     LGT RAIN  68  68 100 S9        30.05F
$$

WIZ051-052-058>065-066-070>072-200400-
SOUTHEAST WISCONSIN

CITY           SKY/WX    TMP DP  RH WIND       PRES   REMARKS
MILWAUKEE      CLOUDY    72  59  63 SE6       30.05F
WAUKESHA       NOT AVBL
MILWAUKEE/TIMM CLOUDY    72  46  40 SE3       30.06R
RACINE         CLOUDY    72  60  66 S7        30.08S
KENOSHA        TSTM      68  62  81 S6        30.11R
FOND DU LAC    LGT RAIN  71  60  68 S28G43    29.82F
SHEBOYGAN      LGT RAIN  68  56  65 S35G43    29.85F
WEST BEND      LGT RAIN  68  54  60 W3        30.08R
JUNEAU         RAIN      70  64  81 CALM      30.08R
$$

LSZ147-162-200400-
LAKE SUPERIOR

STATION/POSITION TIME  TEMP    WIND        PRES    WAVE
                       AIR SEA DIR/SP/G            HT/PER
                 (UTC) (F)     (DEG/KT/KT) (MB)    (FT/S)
W MID LAKE BUOY  0150   53 47  100/  6/  8 1013.5F   0
DEVILS ISLAND    0200   68     140/  8/  8 1013.1F
SAXON HARBOR     0240   67     200/  3/  5 1013.2R
$$

LMZ867-665-643>646-200400-
LAKE MICHIGAN

STATION/POSITION TIME  TEMP    WIND        PRES    WAVE
                       AIR SEA DIR/SP/G            HT/PER
                 (UTC) (F)     (DEG/KT/KT) (MB)    (FT/S)
CHAMBERS ISLAND  0240   71     120/  4/  9 1014.2F
S GREEN BAY BUOY 0200   73 72  150/ 12/ 14 1014.4
N MID LAKE BUOY  0150   67 65  190/  4/  4 1016.5F   0
NORTHPORT PIER   0240   67     160/  3/  6 1014.6F
KEWAUNEE LAKESHO 0230   71     180/  7/  8 1014.5F
SHEBOYGAN LAKESH 0200   72     200/ 15/ 16 1015.4F
PORT WASHINGTON  0240   72     260/  3/  5 1018.3R
ATWATER BUOY     0109   69 69  350/  2/  4 1017.9F
MILWAUKEE LAKESH 0240   69      CALM  /  3   N/A
S MID LAKE BUOY  0150   71 71   50/  4/  4 1017.5F   1
KENOSHA   LAKESH 0200   69        CALM     1017.6
$$

TC  - TEMPERATURE IN CELSIUS
VSB - VISIBILITY IN STATUTE MILES
WCI - WIND CHILL INDEX
HX  - HEAT INDEX





USA.gov is the U.S. government's official web portal to all federal, state and local government web resources and services.